Mitchell, SD

9:46 AM CST on December 06, 2019 (GMT -0600)
Mitchell Municipal

Weather History for KMHE - August, 2019

Change the Weather History Date:

Saturday, August 17, 2019

  Actual Average Record
Temperature  
Mean Temperature 76 °F 72 °F  
Max Temperature 88 °F 83 °F 102 °F (1988)
Min Temperature 64 °F 61 °F 40 °F (1943)
Degree Days  
Heating Degree Days 0 0  
Month to date heating degree days 0 0  
Since 1 June heating degree days 16 40  
Since 1 July heating degree days 0 5  
Cooling Degree Days 11 7  
Month to date cooling degree days 148 142  
Year to date cooling degree days 728 660  
Since 1 June cooling degree days 709 620  
Growing Degree Days 26 (Base 50)    
Moisture  
Dew Point 64 °F    
Average Humidity 70    
Maximum Humidity 87    
Minimum Humidity 53    
Precipitation  
Precipitation 0.57 in 0.09 in 1.48 in (1912)
Month to date precipitation 2.13 1.36  
Year to date precipitation 23.05 15.33  
Snow  
Snow 0.00 in - 0.00 in ()
Month to date snowfall 0.0  
Since 1 June snowfall 0.0  
Since 1 July snowfall 0.0  
Snow Depth 0.00 in    
Sea Level Pressure  
Sea Level Pressure 29.72 in    
Wind  
Wind Speed 12 mph (SSW)    
Max Wind Speed 44 mph    
Max Gust Speed 61 mph    
Visibility 9 miles    
Events Rain , Thunderstorm    
T = Trace of Precipitation, MM = Missing Value Source: NWS Daily Summary

Daily Weather History Graph

Daily Weather History Graph

Search for Another Location

Airport or City:

Astronomy

Aug. 17, 2019 Rise Set
Actual Time 6:38 AM CDT 8:33 PM CDT
Civil Twilight 6:07 AM CDT 9:03 PM CDT
Nautical Twilight 5:29 AM CDT 9:41 PM CDT
Astronomical Twilight 4:48 AM CDT 10:22 PM CDT
Moon 9:58 PM CDT (8/17) 8:30 AM CDT (8/17)
Length of Visible Light 14h 56m
Length of Day
13h 54m
Waning Gibbous, 96% of the Moon is Illuminated
Aug 17
Waning Gibbous
Aug 23
Last Quarter
Aug 30
New
Sep 5
First Quarter
Sep 13
Full

Hourly Weather History & Observations

Time (CDT) Temp. Heat Index Dew Point Humidity Pressure Visibility Wind Dir Wind Speed Gust Speed Precip Events Conditions
12:53 AM 70.0 °F - 62.1 °F 76% 29.83 in 10.0 mi South 6.9 mph - N/A   Clear
1:53 AM 69.1 °F - 63.0 °F 81% 29.80 in 10.0 mi SSE 6.9 mph - N/A   Scattered Clouds
2:16 AM 69.1 °F - 63.0 °F 81% 29.83 in 10.0 mi NW 8.1 mph - N/A Thunderstorm Mostly Cloudy
2:34 AM 69.1 °F - 63.0 °F 81% 29.81 in 10.0 mi WSW 4.6 mph - N/A   Overcast
2:53 AM 69.1 °F - 63.0 °F 81% 29.77 in 10.0 mi SSW 6.9 mph - N/A   Mostly Cloudy
3:19 AM 69.1 °F - 63.0 °F 81% 29.79 in 10.0 mi SSW 10.4 mph - 0.00 in Rain , Thunderstorm Light Rain
3:53 AM 69.1 °F - 61.0 °F 75% 29.73 in 10.0 mi SSW 8.1 mph - 0.02 in Rain Light Rain
4:53 AM 66.0 °F - 60.1 °F 81% 29.73 in 10.0 mi ESE 6.9 mph - 0.01 in   Clear
5:53 AM 66.0 °F - 62.1 °F 87% 29.78 in 10.0 mi South 11.5 mph - N/A   Clear
6:53 AM 66.9 °F - 62.1 °F 84% 29.78 in 10.0 mi South 12.7 mph - N/A   Mostly Cloudy
7:53 AM 68.0 °F - 62.1 °F 81% 29.78 in 10.0 mi South 12.7 mph 24.2 mph 0.00 in   Partly Cloudy
8:19 AM 70.0 °F - 64.0 °F 81% 29.79 in 10.0 mi South 12.7 mph 20.7 mph 0.00 in Thunderstorm Partly Cloudy
8:43 AM 69.1 °F - 64.0 °F 84% 29.82 in 7.0 mi Variable 3.5 mph - 0.01 in Rain , Thunderstorm Light Thunderstorms and Rain
8:53 AM 69.1 °F - 64.0 °F 84% 29.80 in 6.0 mi South 3.5 mph - 0.03 in Rain , Thunderstorm Light Rain
9:05 AM 69.1 °F - 64.9 °F 87% 29.82 in 10.0 mi South 6.9 mph - 0.00 in Rain Light Rain
9:53 AM 70.0 °F - 64.9 °F 84% 29.78 in 10.0 mi South 4.6 mph - 0.00 in Rain Light Rain
10:53 AM 75.9 °F - 66.9 °F 74% 29.75 in 10.0 mi South 12.7 mph - 0.00 in   Clear
11:53 AM 80.1 °F 82.7 °F 68.0 °F 67% 29.72 in 10.0 mi South 11.5 mph - N/A   Clear
12:53 PM 82.9 °F 86.5 °F 69.1 °F 63% 29.71 in 10.0 mi SSE 10.4 mph - N/A   Clear
1:53 PM 84.9 °F 88.8 °F 69.1 °F 59% 29.68 in 10.0 mi SSE 10.4 mph - N/A   Clear
2:53 PM 84.0 °F 87.0 °F 68.0 °F 58% 29.66 in 10.0 mi SSE 9.2 mph - N/A   Clear
3:53 PM 84.9 °F 88.2 °F 68.0 °F 57% 29.64 in 10.0 mi SE 13.8 mph - N/A   Clear
4:53 PM 87.1 °F 90.6 °F 68.0 °F 53% 29.61 in 10.0 mi SSE 16.1 mph - N/A   Clear
5:53 PM 84.9 °F 88.8 °F 69.1 °F 59% 29.62 in 10.0 mi SSE 17.3 mph 25.3 mph N/A   Scattered Clouds
6:53 PM 82.0 °F 85.5 °F 69.1 °F 65% 29.60 in 10.0 mi SE 11.5 mph - N/A   Clear
7:53 PM 79.0 °F - 70.0 °F 74% 29.61 in 10.0 mi SE 8.1 mph - N/A   Clear
8:36 PM 78.1 °F - 66.9 °F 68% 29.66 in 10.0 mi WSW 31.1 mph 52.9 mph N/A Thunderstorm Scattered Clouds
8:42 PM 69.1 °F - 57.9 °F 68% 29.66 in 8.0 mi West 29.9 mph 52.9 mph 0.01 in Rain , Thunderstorm Light Thunderstorms and Rain
8:48 PM 66.2 °F - 60.8 °F 83% 29.72 in 1.5 mi WNW 38.0 mph 61.0 mph 0.16 in Rain , Thunderstorm Heavy Thunderstorms and Rain
8:53 PM 66.0 °F - 62.1 °F 87% 29.69 in 0.8 mi NW 28.8 mph 61.0 mph 0.38 in Rain , Thunderstorm Heavy Thunderstorms and Rain
9:00 PM 64.9 °F - 62.1 °F 90% 29.66 in 1.0 mi NNW 24.2 mph 44.9 mph 0.10 in Rain , Thunderstorm Heavy Thunderstorms and Rain
9:05 PM 64.0 °F - 61.0 °F 90% 29.61 in 2.5 mi North 19.6 mph 38.0 mph 0.12 in Rain , Thunderstorm Heavy Thunderstorms and Rain
9:12 PM 64.0 °F - 61.0 °F 90% 29.57 in 8.0 mi NNE 23.0 mph 34.5 mph 0.13 in Rain , Thunderstorm Light Thunderstorms and Rain
9:23 PM 66.0 °F - 62.1 °F 87% 29.61 in 10.0 mi SW 9.2 mph 39.1 mph 0.13 in Thunderstorm Mostly Cloudy
9:53 PM 66.9 °F - 60.1 °F 79% 29.65 in 10.0 mi West 10.4 mph - 0.13 in Thunderstorm Scattered Clouds
10:02 PM 66.9 °F - 61.0 °F 81% 29.72 in 10.0 mi WNW 9.2 mph - N/A   Mostly Cloudy
10:09 PM 66.9 °F - 61.0 °F 81% 29.75 in 10.0 mi West 15.0 mph 23.0 mph N/A Thunderstorm Thunderstorm
10:27 PM 66.9 °F - 61.0 °F 81% 29.75 in 10.0 mi Variable 4.6 mph - N/A   Overcast
10:40 PM 68.0 °F - 63.0 °F 84% 29.74 in 10.0 mi North 6.9 mph - 0.00 in Rain , Thunderstorm Light Thunderstorms and Rain
10:53 PM 66.9 °F - 63.0 °F 87% 29.64 in 10.0 mi East 15.0 mph 23.0 mph 0.00 in   Mostly Cloudy
11:53 PM 66.0 °F - 63.0 °F 90% 29.73 in 10.0 mi NNW 11.5 mph - 0.00 in   Clear